Showing default

HAWK-5C, 52754

Orbit data source: Space-Track

HAWK-5C, 52754 is a payload satellite owned by HawkEye 360 (US) in SSO that was launched on Wed, 25 May 2022 UTC via an FALCON 9 launch vehicle from the Air Force Eastern Test Range (AFETR). Payload-class satellites include a variety of spacecraft equipped with specific instruments for various scientific and technological missions. These include communications satellites like Starlink; space stations such as the ISS; scientific satellites like the Hubble; Earth observation satellites from companies like Planet Labs, Umbra, and HawkEye 360; GPS; miniature CubeSats for education and research; and military/defense satellites.

Loading next visibility...
Identifier
52754, 2022-057Y
Orbit
SSO
Country
Flag of USUS
Related business
Manufacturer
UTIAS-SFL
Mission
Operational Commercial Sigint
Bus & Motor
DEFIANT, Unknown motor
Mass
31 kg wet, 30 kg dry
Launch date (UTC)
2022-05-25 (4 years ago)
Launch vehicle
FALCON 9
Launch site
Air Force Eastern Test Range (AFETR)
Object type
Payload
Rocket body
Debris
Shape & HBR
Box + 2 Pan, 1.0 m
Radar Cross Section
0.348 m², Medium (>0.1 m² and < 1m²)

Expand to show TLE details & history
Last TLE update: 6 hours ago

TLE from 6 hours ago
0 HAWK-5C
1 52754U 22057Y   25349.94538390  .00014870  00000-0  33082-3 0  9992
2 52754  97.6369 134.1502 0005924  22.1986 337.9517 15.43736115198008
Epoch: 2025-12-15T22:41Z
TLE epoch observation values (Epoch: 2025-12-15T22:41:21.168Z)
Latitude
-0.00002°
Longitude
68.97533°
Altitude
434.468 km
Speed
7.653 km/s
True Right ascension
08h 56m 36s
True Declination
0° 00' 00"
Sunlit
Object was in full shadow at epoch
Visualization orbit readout
Latitude
Unknown
Longitude
Unknown
Altitude
Unknown
Speed
Unknown
Apparent Right ascension
Unknown
Apparent Declination
Unknown
Sunlit
N/A
Visualization observer readout
Local Sidereal Time
03:07:58
Azimuth
Unknown
Elevation
Unknown
Doppler factor
Unknown
Orbital elements
Apogee altitude
436.073 km
Perigee altitude
428.004 km
Semi-major axis
6,810.176 km
Eccentricity
0.00059
Inclination
97.6369°
RAAN
134.1502°
Arg. of periapsis
22.1986°
True anomaly
337.9262°
Mean anomaly
337.9517°
Eccentric anomaly
337.93895°
Mean motion
3.86194 °/min
Orbital period
93.22 mins
BSTAR
0.00033082
Loading maneuver chart data...
Computing Atmospheric mass density...

Documentation

Showing up to 5 results
|